Location: Kile Knob Observatory
(38.6083°N, 79.4792°W)
Time: 02:41:57
(UTC-04:00)

N. Korean satellite - Visible Passes

Search period start: 16 October 2019 00:00
Search period end: 26 October 2019 00:00
Orbit: 455 x 508 km, 97.2° (Epoch: 15 October)

Date Brightness Start Highest point End Pass type
(mag) Time Alt. Az. Time Alt. Az. Time Alt. Az.
16 Oct 10.1 19:24:13 10° SW 19:26:15 15° W 19:28:17 10° WNW visible
17 Oct 8.2 06:50:11 10° NNE 06:53:36 41° E 06:57:02 10° S visible
17 Oct 8.7 18:57:44 10° SSW 19:00:49 32° W 19:03:55 10° NNW visible
18 Oct 9.7 06:25:32 10° NE 06:28:13 19° E 06:30:54 10° SE visible
20 Oct 9.8 19:15:54 10° SW 19:18:23 19° W 19:20:53 10° NW visible
21 Oct 8.7 06:42:29 10° NNE 06:45:47 32° E 06:49:07 10° SSE visible
22 Oct 10.0 06:18:04 10° NE 06:20:22 16° E 06:22:41 10° SE visible
23 Oct 10.4 19:34:57 10° WSW 19:35:58 11° W 19:36:59 10° WNW visible
24 Oct 7.4 06:59:41 10° NNE 07:03:18 58° E 07:06:56 10° S visible
24 Oct 9.3 19:07:41 10° SSW 19:10:29 23° W 19:13:19 10° NW visible
25 Oct 9.1 06:34:48 10° NE 06:37:56 26° E 06:41:05 10° SSE visible
